Weather History for Grove, OK

Change the Weather History Date:

Sunday, March 17, 2013

  Actual Average (KSLG) Record (KSLG)
Temperature  
Mean Temperature 44 °F -  
Max Temperature 46 °F 54 °F 80 °F (2012)
Min Temperature 41 °F 37 °F 21 °F (2014)
Degree Days  
Heating Degree Days 22    
Moisture  
Dew Point 43 °F    
Average Humidity 97    
Maximum Humidity 100    
Minimum Humidity 76    
Precipitation  
Precipitation 0.00 in - - ()
Sea Level Pressure  
Sea Level Pressure 29.80 in    
Wind  
Wind Speed 8 mph (ENE)    
Max Wind Speed 16 mph    
Max Gust Speed 26 mph    
Visibility 6 miles    
Events Rain , Thunderstorm    
Averages and records for this station are not official NWS values.
T = Trace of Precipitation, MM = Missing Value Source: NWS Daily Summary

Daily Weather History Graph

Daily Weather History Graph

Search for Another Location

Airport:

Trip Planner

Search our weather history database for the weather conditions in past years. The results will help you decide how hot, cold, wet, or windy it might be!

Date:

Astronomy

Mar. 17, 2013 Rise Set
Actual Time 7:26 AM CDT 7:28 PM CDT
Civil Twilight 7:00 AM CDT 7:54 PM CDT
Nautical Twilight 6:30 AM CDT 8:24 PM CDT
Astronomical Twilight 6:00 AM CDT 8:54 PM CDT
Moon 10:48 AM CDT (3/17) 12:28 AM CDT (3/17)
Length of Visible Light 12h 53m
Length of Day
12h 01m
Waxing Crescent, 31% of the Moon is Illuminated
Mar 17
Waxing Crescent
Mar 19
First Quarter
Mar 27
Full
Apr 2
Last Quarter
Apr 10
New

Hourly Weather History & Observations

Time (CDT) Temp. Windchill Dew Point Humidity Pressure Visibility Wind Dir Wind Speed Gust Speed Precip Events Conditions
12:15 AM 46.4 °F 43.5 °F 41.0 °F 81% 29.89 in 7.0 mi NNE 5.8 mph - N/A Thunderstorm Overcast
12:35 AM 46.4 °F 43.5 °F 41.0 °F 81% 29.88 in 10.0 mi NE 5.8 mph - N/A   Overcast
12:55 AM 46.4 °F 42.9 °F 39.2 °F 76% 29.88 in 7.0 mi NE 6.9 mph 16.1 mph N/A Rain Rain
1:15 AM 46.4 °F 41.5 °F 41.0 °F 81% 29.88 in 10.0 mi NE 10.4 mph 16.1 mph N/A Thunderstorm Mostly Cloudy
1:35 AM 46.4 °F 42.4 °F 41.0 °F 81% 29.88 in 10.0 mi NNE 8.1 mph - N/A Thunderstorm Unknown
1:55 AM 44.6 °F 40.2 °F 41.0 °F 87% 29.88 in 7.0 mi North 8.1 mph - N/A Rain , Thunderstorm Light Thunderstorms and Rain
2:15 AM 44.6 °F 40.7 °F 41.0 °F 87% 29.89 in 5.0 mi NNE 6.9 mph - N/A Rain , Thunderstorm Light Thunderstorms and Rain
2:35 AM 44.6 °F 38.8 °F 41.0 °F 87% 29.88 in 7.0 mi NNE 11.5 mph - N/A   Overcast
2:55 AM 44.6 °F 40.7 °F 41.0 °F 87% 29.88 in 7.0 mi NNE 6.9 mph - N/A Thunderstorm Overcast
3:15 AM 44.6 °F 38.1 °F 41.0 °F 87% 29.87 in 7.0 mi NE 13.8 mph 18.4 mph N/A   Overcast
3:35 AM 44.6 °F 39.2 °F 41.0 °F 87% 29.86 in 7.0 mi NE 10.4 mph 16.1 mph N/A   Overcast
3:55 AM 42.8 °F 35.4 °F 41.0 °F 93% 29.86 in 7.0 mi NE 15.0 mph 20.7 mph N/A   Overcast
4:15 AM 42.8 °F 36.6 °F 41.0 °F 93% 29.86 in 7.0 mi NE 11.5 mph 16.1 mph N/A   Overcast
4:35 AM 42.8 °F 37.0 °F 39.2 °F 87% 29.86 in 10.0 mi NNE 10.4 mph 20.7 mph N/A   Overcast
5:15 AM 42.8 °F 37.5 °F 39.2 °F 87% 29.89 in 10.0 mi NNE 9.2 mph - N/A   Overcast
5:35 AM 42.8 °F 37.5 °F 39.2 °F 87% 29.88 in 10.0 mi NNE 9.2 mph 17.3 mph N/A   Overcast
5:55 AM 42.8 °F 36.6 °F 41.0 °F 93% 29.90 in 10.0 mi NNE 11.5 mph 17.3 mph N/A   Overcast
6:15 AM 41.0 °F 34.3 °F 41.0 °F 100% 29.91 in 5.0 mi NE 11.5 mph 19.6 mph N/A   Light Drizzle
6:35 AM 41.0 °F 33.5 °F 41.0 °F 100% 29.90 in 5.0 mi NE 13.8 mph - N/A Rain Light Rain
6:55 AM 41.0 °F 33.9 °F 41.0 °F 100% 29.91 in 7.0 mi NE 12.7 mph 20.7 mph N/A   Light Drizzle
7:15 AM 41.0 °F 33.1 °F 41.0 °F 100% 29.89 in 4.0 mi ENE 15.0 mph 20.7 mph N/A Rain Light Rain
7:35 AM 41.0 °F 33.9 °F 41.0 °F 100% 29.89 in 5.0 mi ENE 12.7 mph 21.9 mph N/A   Drizzle
7:55 AM 41.0 °F 35.8 °F 41.0 °F 100% 29.88 in 4.0 mi ENE 8.1 mph 16.1 mph N/A   Light Drizzle
8:15 AM 41.0 °F 33.5 °F 41.0 °F 100% 29.88 in 5.0 mi ENE 13.8 mph 18.4 mph N/A   Light Drizzle
8:35 AM 41.0 °F 32.8 °F 41.0 °F 100% 29.88 in 7.0 mi East 16.1 mph 26.5 mph N/A   Overcast
8:55 AM 42.8 °F 35.8 °F 42.8 °F 100% 29.88 in 10.0 mi East 13.8 mph 20.7 mph N/A   Overcast
9:15 AM 42.8 °F 36.2 °F 42.8 °F 100% 29.87 in 10.0 mi East 12.7 mph 23.0 mph N/A   Overcast
9:35 AM 42.8 °F 36.6 °F 42.8 °F 100% 29.88 in 10.0 mi East 11.5 mph 18.4 mph N/A   Overcast
9:55 AM 42.8 °F 37.0 °F 42.8 °F 100% 29.87 in 10.0 mi East 10.4 mph 18.4 mph N/A   Overcast
10:15 AM 44.6 °F 39.7 °F 44.6 °F 100% 29.87 in 10.0 mi East 9.2 mph - N/A   Overcast
10:35 AM 44.6 °F 39.2 °F 44.6 °F 100% 29.86 in 7.0 mi East 10.4 mph 17.3 mph N/A   Overcast
10:55 AM 42.8 °F 37.0 °F 42.8 °F 100% 29.87 in 4.0 mi East 10.4 mph 16.1 mph N/A   Drizzle
11:15 AM 44.6 °F 40.2 °F 44.6 °F 100% 29.86 in 3.0 mi East 8.1 mph - N/A   Light Drizzle
11:35 AM 44.6 °F 39.2 °F 44.6 °F 100% 29.83 in 5.0 mi East 10.4 mph 16.1 mph N/A   Overcast
11:55 AM 44.6 °F 38.8 °F 44.6 °F 100% 29.82 in 5.0 mi East 11.5 mph 17.3 mph N/A   Overcast
12:15 PM 44.6 °F 39.7 °F 44.6 °F 100% 29.82 in 10.0 mi ENE 9.2 mph - N/A   Overcast
12:35 PM 44.6 °F 43.1 °F 44.6 °F 100% 29.82 in 10.0 mi ENE 3.5 mph - N/A   Overcast
12:55 PM 44.6 °F 43.1 °F 44.6 °F 100% 29.83 in 10.0 mi NE 3.5 mph - N/A   Overcast
1:15 PM 44.6 °F 41.4 °F 44.6 °F 100% 29.81 in 3.0 mi ENE 5.8 mph - N/A   Drizzle
1:35 PM 44.6 °F 40.7 °F 44.6 °F 100% 29.79 in 2.5 mi ENE 6.9 mph - N/A   Light Drizzle
1:55 PM 44.6 °F 40.7 °F 44.6 °F 100% 29.78 in 3.0 mi NE 6.9 mph - N/A   Light Drizzle
2:15 PM 44.6 °F 40.2 °F 44.6 °F 100% 29.76 in 3.0 mi ENE 8.1 mph - N/A   Overcast
2:35 PM 44.6 °F 42.2 °F 44.6 °F 100% 29.76 in 4.0 mi ENE 4.6 mph - N/A   Overcast
2:55 PM 44.6 °F 42.2 °F 44.6 °F 100% 29.76 in 2.5 mi ENE 4.6 mph - N/A   Drizzle
3:15 PM 44.6 °F 42.2 °F 44.6 °F 100% 29.74 in 2.5 mi ENE 4.6 mph - N/A   Light Drizzle
3:35 PM 44.6 °F 41.4 °F 44.6 °F 100% 29.73 in 2.5 mi ENE 5.8 mph - N/A   Light Drizzle
3:55 PM 44.6 °F 41.4 °F 44.6 °F 100% 29.72 in 4.0 mi ENE 5.8 mph - N/A   Overcast
4:15 PM 44.6 °F 41.4 °F 44.6 °F 100% 29.71 in 5.0 mi ENE 5.8 mph - N/A   Overcast
4:35 PM 44.6 °F 40.7 °F 44.6 °F 100% 29.71 in 10.0 mi East 6.9 mph - N/A   Overcast
4:55 PM 44.6 °F 40.2 °F 44.6 °F 100% 29.71 in 10.0 mi East 8.1 mph - N/A   Overcast
5:15 PM 44.6 °F 42.2 °F 44.6 °F 100% 29.70 in 10.0 mi East 4.6 mph - N/A   Overcast
5:35 PM 44.6 °F 43.1 °F 44.6 °F 100% 29.70 in 10.0 mi East 3.5 mph - N/A   Overcast
5:55 PM 44.6 °F - 44.6 °F 100% 29.71 in 10.0 mi Calm Calm - N/A Thunderstorm Overcast
6:15 PM 44.6 °F 43.1 °F 44.6 °F 100% 29.70 in 10.0 mi ENE 3.5 mph - N/A   Overcast
6:35 PM 44.6 °F - 44.6 °F 100% 29.70 in 10.0 mi Calm Calm - N/A   Overcast
6:55 PM 44.6 °F - 44.6 °F 100% 29.71 in 5.0 mi Calm Calm - N/A   Overcast
7:15 PM 44.6 °F - 44.6 °F 100% 29.71 in 3.0 mi Calm Calm - N/A   Overcast
7:35 PM 44.6 °F - 44.6 °F 100% 29.71 in 3.0 mi Calm Calm - N/A   Overcast
7:55 PM 44.6 °F 43.1 °F 44.6 °F 100% 29.71 in 4.0 mi NE 3.5 mph - N/A   Overcast
8:15 PM 44.6 °F 43.1 °F 44.6 °F 100% 29.71 in 4.0 mi NE 3.5 mph - N/A   Overcast
8:35 PM 44.6 °F - 44.6 °F 100% 29.71 in 4.0 mi Calm Calm - N/A   Overcast
8:55 PM 44.6 °F - 44.6 °F 100% 29.71 in 3.0 mi Calm Calm - N/A   Overcast
9:15 PM 44.6 °F - 44.6 °F 100% 29.71 in 3.0 mi Calm Calm - N/A   Overcast
9:35 PM 44.6 °F - 44.6 °F 100% 29.72 in 2.5 mi Calm Calm - N/A   Overcast
9:55 PM 44.6 °F - 44.6 °F 100% 29.72 in 2.5 mi Calm Calm - N/A   Overcast
10:15 PM 44.6 °F - 44.6 °F 100% 29.72 in 2.5 mi Calm Calm - N/A   Overcast
10:35 PM 44.6 °F - 44.6 °F 100% 29.73 in 2.5 mi Calm Calm - N/A   Overcast
10:55 PM 44.6 °F - 44.6 °F 100% 29.73 in 2.5 mi Calm Calm - N/A   Overcast
11:15 PM 44.6 °F - 44.6 °F 100% 29.73 in 2.5 mi Calm Calm - N/A   Overcast
11:35 PM 44.6 °F - 44.6 °F 100% 29.74 in 1.8 mi Calm Calm - N/A   Overcast
11:55 PM 44.6 °F - 44.6 °F 100% 29.73 in 1.2 mi Calm Calm - N/A   Overcast